Regional Weather Roundup
Issued by NWS

Home | Current Version | Previous Version | Graphics & Text | Print | Product List | Glossary On
Versions: 1 2 3 4 5 6 7 8 9 10 11 12 13 14 15 16 17 18 19 20 21 22 23 24 25 26 27 28 29 30 31 32 33 34 35 36 37 38 39 40 41 42 43 44 45 46 47 48 49 50
000
ASUS43 KFSD 211102
RWRSD

WEATHER ROUNDUP FOR SOUTH DAKOTA
NATIONAL WEATHER SERVICE SIOUX FALLS SD
500 AM CST TUE NOV 21 2017

NOTE: "FAIR" INDICATES FEW OR NO CLOUDS BELOW 12,000 FEET WITH NO
SIGNIFICANT WEATHER AND/OR OBSTRUCTIONS TO VISIBILITY.


SDZ001>005-009-010-012>017-211200-
NORTHWEST AND NORTH CENTRAL SOUTH DAKOTA

CITY           SKY/WX    TMP DP  RH WIND       PRES   REMARKS
BUFFALO          N/A     18   6  59 NW20G25   30.10R WCI   2
FAITH            N/A     16   2  54 N16G28    30.14R WCI   1
MOBRIDGE       CLOUDY    15   5  64 NW24G36   30.09R WCI  -4
$$

SDZ012>016-024>037-041>051-057-063-072>074-211200-
SOUTHWEST AND SOUTH CENTRAL SOUTH DAKOTA

CITY           SKY/WX    TMP DP  RH WIND       PRES   REMARKS
RAPID CTY ARPT CLOUDY    30  23  75 NW30G38   30.12R WCI  15
PIERRE         FLURRIES  20   6  55 N28G37    30.12R WCI   2
CUSTER         CLOUDY    29  20  69 NW12G17   30.05R WCI  19
ELLSWORTH AFB  CLOUDY    30  25  82 NW28G35   30.10R WCI  15
PHILIP         CLOUDY    32  23  69 N20       30.14R WCI  20
PINE RIDGE     LGT SNOW  30  27  88 N9        30.12R FOG     WCI  22
SPEARFISH      CLOUDY    27  23  86 NW15      30.14R WCI  15
WINNER         CLOUDY    33  30  88 NW18G24   30.06R WCI  22
$$

SDZ004>011-016>023-039-040-211200-
NORTHEAST SOUTH DAKOTA

CITY           SKY/WX    TMP DP  RH WIND       PRES   REMARKS
ABERDEEN       CLOUDY    15   7  70 NW16      30.07R WCI  -1
WATERTOWN      CLOUDY    17   8  67 NW31G38   29.95R WCI  -3
BROOKINGS      CLOUDY    18   8  65 N29G39    29.93R WCI  -1
SISSETON         N/A     19   9  65 NW29G41   29.95R WCI   0
$$

SDZ017-020-022-023-036>040-048>070-211200-
SOUTHEAST SOUTH DAKOTA

CITY           SKY/WX    TMP DP  RH WIND       PRES   REMARKS
SIOUX FALLS    CLOUDY    32  16  51 NW22G32   29.93R WCI  19
HURON          CLOUDY    17   5  59 N22G32    30.07R WCI   0
CHAMBERLAIN    CLOUDY    28  11  48 NW20G33   30.09R WCI  15
MITCHELL       PTCLDY    26  11  52 N28G35    30.04R WCI  10
YANKTON        MOCLDY    40  19  43 NW21G30   29.96R
$$

ABBREVIATIONS USED IN REMARKS
   TC - TEMPERATURE IN CELSIUS
  WCI - WIND CHILL INDEX
   HX - HEAT INDEX
  VSB - VISIBILITY




USA.gov is the U.S. government's official web portal to all federal, state and local government web resources and services.